SCP
1 1 1 2 2 2 2 2 2 1 1 1 1 1 1 1 1 1 1 1 1 1 1 1 1 2 2 2 2 2 2 2 2 2 1 1 1 1 1 0 0 0 0
1 1 1 2 2 2 2 2 2 1 1 1 1 1 1 1 1 1 1 1 1 1 1 1 1 2 2 2 2 2 2 2 2 2 1 1 1 1 1 0 0 0 0
1 1 1 2 2 2 2 2 2 1 1 1 1 1 1 1 1 1 1 1 1 1 1 1 1 2 2 2 2 2 2 2 2 2 1 1 1 1 0 0 0 0 0
1 1 1 2 2 2 2 2 2 1 1 1 1 1 1 1 1 2 2 1 1 1 1 1 1 1 1 1 1 1 1 2 2 1 1 0 0 0 1 0 0 0 0
0 1 1 2 2 2 1 1 1 1 1 1 1 1 1 1 1 2 2 2 1 1 1 1 1 1 1 1 1 1 1 2 2 1 0 0 0 0 0 0 0 0 0
0 1 1 1 1 1 1 1 1 1 1 1 1 1 1 1 1 1 1 2 1 1 1 1 1 1 1 1 1 1 1 1 1 1 0 0 0 0 0 0 0 0 0
0 1 1 1 1 1 1 1 1 1 1 1 1 1 1 1 1 1 1 1 1 1 1 1 1 1 1 1 1 1 1 1 1 0 0 0 0 0 0 0 0 0 0
0 0 1 1 1 1 1 1 1 1 1 1 1 1 1 1 1 1 1 1 1 1 1 1 2 2 1 1 1 1 1 1 1 0 0 0 0 0 0 0 0 0 0
1 0 0 1 1 1 1 1 1 1 1 1 1 1 1 1 1 1 1 1 1 1 1 2 2 2 1 1 1 1 1 1 0 0 0 0 0 0 0 0 0 0 0
1 0 0 0 0 1 1 1 1 1 1 1 1 1 1 1 1 1 1 1 1 1 2 2 2 2 1 1 1 1 1 1 0 0 0 0 1 1 0 0 0 0 0
1 1 0 0 0 1 1 1 1 1 1 1 1 1 1 1 1 1 1 1 1 1 2 2 2 1 1 1 1 1 1 1 0 0 0 0 1 1 1 1 0 0 0
1 1 1 0 0 1 1 1 1 0 0 0 0 0 0 0 0 0 1 1 1 1 1 1 1 1 1 1 1 1 0 0 0 0 0 1 1 1 1 1 1 1 0
1 1 1 1 1 1 1 1 1 0 0 0 0 0 0 0 0 0 0 0 0 0 0 1 1 1 0 0 0 0 0 0 0 0 0 1 1 1 1 1 1 1 1
1 1 1 1 1 1 1 1 1 1 0 0 0 0 0 0 0 0 0 0 0 0 0 0 0 0 0 0 0 0 0 0 0 0 1 1 1 2 2 2 1 1 1
1 1 1 1 1 2 2 1 1 1 0 0 0 0 0 0 0 0 0 0 0 0 0 0 0 0 0 0 0 0 0 0 0 0 1 1 1 2 2 2 2 1 1
1 1 1 2 2 2 2 1 1 1 1 1 0 0 0 0 0 0 0 0 0 0 0 0 0 0 0 0 0 0 0 0 0 0 1 1 1 1 2 2 2 2 1
3 2 2 2 3 2 2 1 1 1 1 1 0 0 0 0 0 0 0 0 0 0 0 0 0 0 0 0 0 0 0 0 0 0 0 1 1 1 1 1 1 1 1
5 4 4 3 3 2 2 1 1 0 1 1 1 0 0 0 0 0 0 0 0 0 0 0 0 0 0 0 0 0 0 0 0 0 0 0 0 0 1 1 1 1 1
5 5 4 3 3 2 2 1 1 0 0 1 1 1 0 0 1 1 0 0 0 0 0 0 0 0 0 0 0 0 0 0 0 0 0 0 0 0 0 1 1 1 1
5 4 3 3 3 2 2 1 1 0 0 1 1 1 1 1 1 1 1 1 1 1 1 0 0 0 0 0 0 0 0 0 0 0 0 0 0 0 0 0 1 1 1
4 3 3 2 2 2 2 1 1 0 0 0 1 1 1 1 2 2 2 1 1 1 1 1 0 0 0 0 0 0 0 0 0 0 0 0 0 0 0 0 0 1 1
4 3 3 2 2 2 2 1 1 0 0 1 1 1 1 1 2 2 2 2 1 1 1 1 1 1 1 1 1 0 0 0 0 0 0 0 0 0 0 0 0 0 0
4 3 3 2 2 2 2 1 1 1 1 1 1 1 1 1 2 2 2 2 1 1 1 1 1 1 1 1 1 1 1 1 0 0 0 0 0 0 0 0 0 0 0
3 3 3 3 3 2 2 2 1 1 1 1 1 1 1 1 1 2 2 1 1 1 1 1 1 1 1 1 1 1 1 1 1 1 1 0 0 0 0 0 0 0 0
3 2 2 2 3 3 2 2 1 1 1 1 1 1 1 1 1 1 1 1 1 1 1 1 1 1 1 2 2 2 1 1 1 1 1 1 0 0 0 0 0 0 0
3 2 2 2 2 3 3 2 1 1 1 1 1 1 1 0 1 1 1 1 1 1 1 1 1 1 2 2 2 2 2 2 1 1 1 1 0 0 0 0 0 0 0
Wind_Speed
1 2 8 11 13 13 14 14 14 14 15 15 15 16 16 16 16 16 15 15 14 15 15 15 16 17 17 17 16 16 16 16 16 16 16 16 16 16 16 15 14 10 15
3 4 9 11 13 13 14 14 14 14 14 15 15 16 16 16 16 15 15 15 14 15 15 15 16 16 16 16 16 16 16 15 16 16 15 14 15 15 15 15 14 9 14
6 5 7 11 13 14 14 14 14 14 15 15 15 15 15 15 15 15 15 14 15 15 15 15 15 16 15 15 15 14 14 14 15 15 14 7 9 14 14 14 14 14 13
7 5 7 11 13 14 14 14 14 15 15 15 15 15 15 15 15 15 15 14 14 14 14 14 14 15 14 13 13 12 13 13 13 14 7 5 6 13 14 14 14 13 12
6 5 7 13 13 14 13 13 14 14 15 15 15 15 15 14 14 14 14 13 13 13 13 13 13 13 12 12 11 10 10 11 13 10 6 5 5 11 13 13 13 12 12
6 5 8 13 14 14 13 13 13 14 14 14 14 14 14 14 14 13 13 12 12 12 12 12 12 12 11 11 10 9 9 11 10 6 6 5 5 11 13 13 12 12 11
6 5 7 13 13 13 13 12 13 13 13 13 13 13 13 13 13 13 12 12 12 12 12 12 11 11 10 9 9 8 8 10 7 6 5 5 6 11 12 12 12 11 11
8 6 7 12 13 13 12 12 12 13 12 12 11 11 12 12 12 12 12 11 11 11 11 11 11 10 9 8 7 7 7 7 7 6 5 5 9 11 12 11 11 11 10
8 6 5 5 8 11 11 11 12 12 11 11 11 11 11 11 11 11 10 10 11 11 11 10 10 9 8 7 6 6 6 7 5 4 6 4 9 12 12 12 11 11 10
6 5 5 4 4 4 5 9 10 11 11 10 11 11 10 10 9 9 8 9 10 10 9 9 8 8 6 5 5 5 6 6 4 4 4 6 11 12 12 12 11 11 10
6 4 4 4 4 4 4 7 7 9 9 8 7 9 7 3 3 4 6 8 8 8 7 7 7 6 4 3 4 4 4 2 3 4 4 8 12 13 12 12 11 11 10
6 5 4 4 4 3 4 4 2 3 3 3 2 3 2 2 1 3 5 7 7 6 6 5 4 3 2 1 2 2 2 3 3 3 4 11 12 12 12 12 11 11 10
7 7 5 5 5 4 2 3 1 1 1 2 2 2 2 1 1 1 1 2 2 3 2 2 1 1 1 1 1 1 2 2 2 3 5 11 12 13 12 12 11 11 11
7 7 6 5 5 4 4 3 3 2 1 1 2 3 2 1 2 2 1 1 1 1 1 1 1 1 1 1 2 2 3 3 2 2 4 10 11 12 12 12 11 11 11
7 6 5 5 5 4 4 3 4 3 3 2 2 2 3 2 2 2 2 1 1 1 2 2 1 2 2 1 1 2 3 3 4 3 3 10 11 11 11 11 11 11 11
7 6 4 5 5 5 4 3 3 3 2 2 2 2 3 3 2 2 2 2 2 2 2 2 2 2 1 1 1 2 2 3 3 4 3 5 9 10 10 11 11 11 10
7 6 5 5 4 4 4 3 3 2 3 2 2 2 2 3 3 2 2 2 2 2 2 1 1 1 1 2 2 2 2 2 3 3 3 2 3 7 9 9 10 10 10
8 7 5 6 5 4 3 3 2 2 3 2 2 2 3 3 3 2 2 1 1 1 2 2 2 2 1 2 1 1 1 1 2 2 2 3 2 2 4 7 7 8 9
8 7 6 5 5 4 3 2 2 2 2 2 2 1 2 2 3 2 2 1 1 2 1 2 2 2 2 2 1 1 1 1 1 2 3 3 3 2 1 3 4 5 7
6 6 6 5 4 4 2 2 2 2 1 1 2 2 2 1 2 2 2 1 2 2 1 2 2 2 2 2 2 2 2 1 1 1 2 2 2 3 2 1 1 1 3
7 6 6 5 4 3 2 2 1 1 0 0 1 1 2 1 2 2 1 1 2 2 2 2 2 2 1 2 2 2 3 3 2 1 1 2 2 2 2 2 1 1 0
7 7 6 6 5 4 3 2 2 2 1 1 0 0 1 1 2 2 2 2 2 2 1 2 2 2 1 1 2 2 1 2 3 3 2 2 2 2 2 2 1 1 1
8 8 7 6 5 4 3 2 2 2 2 1 1 1 1 1 1 2 2 2 2 2 2 2 2 3 1 1 2 3 3 2 0 2 2 3 3 3 2 2 2 1 1
9 8 7 6 5 4 4 3 3 3 2 2 1 1 0 1 1 1 2 2 2 2 2 2 2 2 2 1 1 1 2 4 3 1 1 2 2 2 2 2 2 1 0
10 8 7 6 5 4 4 4 4 2 2 1 1 1 0 1 1 1 2 2 2 1 1 1 1 1 1 2 1 1 1 1 2 3 1 0 1 2 1 2 1 1 1
8 7 7 6 5 4 4 4 4 4 3 3 2 1 0 1 1 1 2 2 1 1 1 1 1 1 1 1 1 1 2 2 2 2 2 1 1 1 1 1 1 1 1
Wind_Direction
53 72 90 94 90 87 88 89 92 95 98 103 103 104 103 104 104 104 105 106 107 108 109 110 116 119 119 120 122 123 124 124 124 124 122 122 123 124 123 120 117 114 117
131 105 98 96 94 91 90 90 92 95 101 102 105 104 104 104 104 104 104 105 107 109 110 109 113 115 116 118 121 123 124 124 124 124 122 122 123 126 124 123 121 124 123
111 101 101 99 98 95 94 94 95 95 101 104 104 105 105 105 105 105 103 104 107 111 110 110 112 114 116 117 119 121 124 125 125 123 119 114 121 125 127 126 126 126 126
112 103 108 107 103 100 98 96 95 95 99 105 106 107 107 106 106 105 105 106 108 111 113 115 116 116 118 119 119 121 124 127 127 125 114 113 121 126 129 128 129 129 128
104 101 115 113 109 105 102 99 98 98 99 103 107 109 109 108 107 106 106 106 110 114 118 119 120 120 120 119 118 120 124 128 129 122 113 112 116 132 132 132 133 134 133
104 103 116 116 113 110 107 104 103 102 102 104 105 108 109 109 108 108 107 108 111 115 121 123 123 123 120 119 118 123 125 126 123 116 122 128 132 140 139 139 138 138 138
114 108 115 118 118 116 112 110 108 107 105 106 108 110 111 110 110 110 110 109 112 116 120 124 123 123 124 122 122 121 121 125 126 130 138 144 149 147 145 143 142 141 141
125 116 117 123 121 119 117 115 113 110 109 109 111 111 113 112 111 111 110 110 115 120 123 126 125 122 121 120 117 114 117 125 131 140 141 147 154 152 150 147 148 148 147
125 122 115 122 125 127 123 123 120 116 113 114 117 117 117 118 116 115 113 113 116 123 126 128 127 125 126 124 118 117 121 119 120 137 147 149 156 157 154 153 154 154 153
128 129 127 121 115 119 125 131 127 125 123 121 120 122 124 125 123 120 117 119 121 124 128 130 132 133 131 128 127 123 121 111 125 143 142 162 165 164 162 162 160 161 161
136 141 141 136 131 131 130 134 130 131 130 129 124 127 123 108 114 123 128 131 132 134 135 138 138 137 136 135 135 130 123 118 129 142 154 169 169 169 168 166 167 168 167
150 157 153 153 152 148 143 123 123 131 129 126 127 130 117 119 129 144 145 146 142 139 138 141 145 144 137 123 128 124 118 134 139 151 167 170 171 171 172 171 172 171 171
156 157 156 157 158 161 144 134 143 131 131 142 156 163 146 141 146 131 119 133 130 135 120 129 144 151 153 156 136 133 150 144 147 160 170 174 176 177 177 177 177 177 177
142 151 159 158 154 158 147 150 156 153 151 163 177 166 152 144 148 153 156 158 142 135 150 168 150 179 189 195 173 164 162 152 151 156 175 179 181 181 180 181 184 186 185
137 140 148 147 143 142 139 150 148 161 166 174 159 164 157 150 158 158 163 163 175 177 179 183 189 187 190 190 167 158 141 147 156 162 174 182 184 185 185 186 188 190 194
136 137 137 138 142 137 137 141 145 154 161 155 151 164 160 155 157 155 158 166 181 191 191 187 189 177 170 144 138 139 144 152 162 165 170 183 185 187 191 192 193 193 196
144 142 142 139 131 129 127 135 136 146 140 140 146 148 160 155 152 148 157 174 198 189 178 152 131 106 117 115 106 120 139 146 148 170 173 176 186 194 197 198 197 198 199
145 147 151 141 130 130 128 124 131 136 137 141 144 146 168 164 155 151 149 176 189 152 140 136 127 109 91 92 92 102 112 127 146 158 162 165 167 186 201 200 201 208 209
152 152 150 142 143 145 141 122 128 131 140 150 148 157 176 165 156 151 148 169 155 128 130 146 129 129 121 109 105 81 59 88 142 148 152 156 156 158 170 191 204 210 220
152 146 145 144 145 140 120 93 83 89 118 138 158 175 173 171 163 152 154 154 137 119 117 119 131 131 137 134 99 58 41 41 64 132 154 141 137 142 144 166 186 215 228
148 143 143 145 155 139 118 115 113 137 168 160 189 177 168 165 162 139 130 121 124 133 148 137 134 130 133 125 92 50 30 27 30 41 92 110 122 140 130 121 112 90 42
162 156 148 156 164 161 157 161 165 163 182 180 156 105 154 153 169 151 146 151 145 135 129 135 135 135 190 160 133 115 48 10 14 37 60 91 100 95 86 93 96 103 106
167 167 165 166 168 171 162 132 101 72 46 46 41 15 27 117 129 134 143 144 144 146 160 171 162 156 185 232 169 148 153 187 310 4 32 57 71 80 83 82 83 62 79
176 170 166 166 168 169 155 148 148 151 162 201 189 178 352 85 117 138 137 136 140 148 163 187 168 167 161 200 248 184 167 160 155 139 18 37 58 71 81 93 88 81 60
173 169 168 164 168 167 159 158 153 154 174 173 136 123 48 25 62 103 124 126 131 146 162 159 156 163 168 181 193 169 114 102 128 144 157 30 37 35 68 98 100 84 52
167 165 165 165 173 171 163 158 158 160 157 145 151 153 136 24 26 62 103 104 111 115 125 152 152 154 156 158 163 154 154 159 166 144 151 154 122 3 42 74 92 86 74